Location: Newark
(12.0500°N, 61.7500°W)
Time: 20:18:45
(UTC+00:00)

N. Korean satellite - Visible Passes

Search period start: 29 January 2020 00:00
Search period end: 08 February 2020 00:00
Orbit: 454 x 507 km, 97.2° (Epoch: 29 January)

Date Brightness Start Highest point End Pass type
(mag) Time Alt. Az. Time Alt. Az. Time Alt. Az.
29 Jan 9.8 08:55:02 10° ENE 08:57:22 16° E 08:59:44 10° SE visible
30 Jan 7.2 10:01:43 10° N 10:05:06 35° WNW 10:08:30 10° SW visible
31 Jan 6.7 09:36:01 10° NNE 09:39:40 82° E 09:43:23 10° S visible
01 Feb 8.7 09:10:59 10° NE 09:14:13 29° E 09:17:29 10° SSE visible
02 Feb 10.1 08:47:15 10° ENE 08:48:44 12° E 08:50:14 10° ESE visible
03 Feb 6.8 09:52:54 10° N 09:56:29 50° WNW 10:00:05 10° SSW visible
04 Feb 7.3 09:27:24 10° NNE 09:31:03 58° E 09:34:42 10° S visible
05 Feb 9.3 09:02:39 10° NE 09:05:35 22° E 09:08:30 10° SSE visible
07 Feb 6.5 09:44:10 10° N 09:47:50 71° WNW 09:51:32 10° SSW visible
